[[{"header":{"parameterUnit":"m.s-1","parameterCategory":1,"la1":30.2991,"la2":30.254,"lo1":-89.0895,"lo2":-89.0444,"dy":0.0017,"dx":0.0017,"nx":28,"ny":28,"refTime":"2025-07-25T21:00:00:Z","depth":0,"parameterNumber":2,"parameterNumberName":"U-component_of_WINDS"},"data":[0,0,0,0,0,0,0,0,0,0,0,0,0,0,0,0,0,0,0,0,0,0,0,0,0,0,0,0,0,0,0,0,0,0,0,0,0,0,0,0,0,0,0,0,0,0,0,0,0,0,0,0,0,0,0,0,0,0,-1.2587,-1.2586,0,-1.2506,-1.2505,-1.2504,-1.2451,-1.2451,-1.245,-1.245,-1.2365,-1.2364,-1.2362,0,0,0,0,0,0,0,0,0,0,0,0,0,-1.2694,-1.2693,-1.2587,-1.2586,-1.2585,-1.2506,-1.2505,-1.2504,-1.2451,-1.2451,-1.245,-1.245,-1.2366,-1.2364,-1.2361,0,0,0,0,0,0,0,0,0,0,0,0,0,-1.2634,-1.2692,-1.2587,-1.2549,-1.2545,-1.2506,-1.2505,-1.2504,-1.2451,-1.2451,-1.245,-1.245,-1.2367,-1.2364,-1.2361,-1.2353,0,0,-1.2352,-1.2351,0,0,0,0,0,0,0,0,-1.2638,-1.263,-1.2555,-1.2551,-1.2547,-1.2488,-1.2512,-1.2453,-1.2451,-1.2487,-1.245,-1.2449,-1.2406,-1.24,-1.2386,-1.2349,-1.2346,-1.2352,-1.235,-1.2349,-1.2348,0,0,0,0,0,0,0,-1.2642,-1.2633,-1.2555,-1.2554,-1.2549,-1.2536,-1.2527,-1.25,-1.245,-1.2483,-1.2479,-1.2471,-1.2404,-1.2389,-1.2384,-1.2345,-1.2352,-1.2349,-1.2348,-1.2347,-1.2299,-1.23,0,0,0,0,0,0,-1.2652,-1.2637,-1.2557,-1.2552,-1.2592,-1.2534,-1.2524,-1.2507,-1.245,-1.2441,-1.2471,-1.2469,-1.2394,-1.2387,-1.2381,-1.2369,-1.2349,-1.2346,-1.2345,-1.2299,-1.2299,-1.23,0,0,0,0,0,0,-1.2655,-1.2646,-1.256,-1.2594,-1.2582,-1.2533,-1.2515,-1.2506,-1.2491,-1.2441,-1.2432,-1.2465,-1.2394,-1.2385,-1.2361,-1.2365,-1.2345,-1.2342,-1.2298,-1.2299,-1.2299,-1.2344,0,0,0,0,0,0,-1.2658,-1.2647,-1.2643,-1.2594,-1.258,-1.2542,-1.2515,-1.2505,-1.2486,-1.2482,-1.2433,-1.2425,-1.2393,-1.2366,-1.2358,-1.236,-1.234,-1.2297,-1.2298,-1.2299,-1.2342,-1.2346,-1.235,0,0,0,0,0,-1.2662,-1.2658,-1.2643,-1.2634,-1.2575,-1.2543,-1.2535,-1.2498,-1.2487,-1.2483,-1.2452,-1.2426,-1.2366,-1.2364,-1.2355,-1.2356,-1.2297,-1.2298,-1.2299,-1.234,-1.2345,-1.235,0,0,0,0,0,0,-1.2708,-1.2651,-1.2634,-1.2614,-1.2584,-1.2534,-1.2527,-1.2505,-1.2477,-1.2474,-1.2429,-1.2419,-1.24,-1.2376,-1.2374,-1.2347,-1.2329,-1.2328,-1.2363,-1.2367,-1.2371,-1.2377,-1.2338,0,0,0,0,0,-1.2716,-1.2695,-1.2646,-1.2633,-1.2619,-1.2577,-1.2561,-1.2536,-1.2503,-1.2489,-1.2456,-1.2424,-1.2398,-1.2381,-1.2355,-1.2339,-1.2328,-1.2336,-1.234,-1.2343,-1.2343,-1.2334,-1.2337,-1.2303,-1.2303,-1.2303,0,0,-1.2732,-1.2698,-1.2687,-1.2642,-1.2615,-1.2595,-1.2566,-1.2545,-1.2529,-1.2486,-1.2461,-1.2436,-1.2398,-1.2379,-1.2368,-1.2358,-1.235,-1.2345,-1.2348,-1.2345,-1.2335,-1.2339,-1.2341,-1.2304,-1.2304,-1.2304,0,0,-1.275,-1.2723,-1.2709,-1.2684,-1.2645,-1.2617,-1.2614,-1.2568,-1.255,-1.2525,-1.2493,-1.2474,-1.243,-1.2404,-1.2385,-1.2397,-1.2373,-1.239,-1.2409,-1.2401,-1.2404,-1.2406,-1.241,-1.2413,-1.239,-1.239,-1.239,0,-1.2774,-1.2742,-1.2705,-1.2686,-1.2668,-1.263,-1.2616,-1.2593,-1.2547,-1.2535,-1.2525,-1.247,-1.2441,-1.2416,-1.2419,-1.2405,-1.2401,-1.2394,-1.2407,-1.2408,-1.241,-1.2414,-1.2415,-1.2392,-1.2392,-1.2392,-1.2391,0,-1.2774,-1.2752,-1.2746,-1.2704,-1.2685,-1.2669,-1.263,-1.2615,-1.2593,-1.2566,-1.2542,-1.2507,-1.2473,-1.2466,-1.2443,-1.2438,-1.2433,-1.2415,-1.2396,-1.2416,-1.2419,-1.242,-1.2395,-1.2394,-1.2394,-1.2393,0,0,-1.2816,-1.2756,-1.2755,-1.2736,-1.2691,-1.2674,-1.2657,-1.2625,-1.2613,-1.2583,-1.2568,-1.2533,-1.2517,-1.2496,-1.247,-1.2463,-1.2476,-1.2446,-1.2445,-1.2453,-1.2469,-1.2482,-1.2484,-1.246,-1.246,-1.246,-1.2472,0,-1.2828,-1.2795,-1.2763,-1.2742,-1.2722,-1.2687,-1.2672,-1.2643,-1.2619,-1.2598,-1.257,-1.2546,-1.2527,-1.2514,-1.2506,-1.2476,-1.2478,-1.2475,-1.2445,-1.2445,-1.2455,-1.2485,-1.2498,-1.2511,-1.2473,-1.2473,-1.2473,0,-1.2835,-1.2809,-1.2787,-1.2746,-1.2736,-1.2723,-1.2692,-1.2673,-1.264,-1.2623,-1.2601,-1.2575,-1.2555,-1.254,-1.2513,-1.2511,-1.2498,-1.2482,-1.2481,-1.2476,-1.2459,-1.2481,-1.2514,-1.2515,-1.2474,-1.2474,-1.2474,0,-1.2869,-1.2828,-1.2809,-1.2794,-1.2746,-1.2738,-1.2717,-1.2684,-1.2668,-1.2641,-1.263,-1.2601,-1.2585,-1.2563,-1.253,-1.2521,-1.2507,-1.2488,-1.2492,-1.2493,-1.2489,-1.2489,-1.252,-1.2482,-1.2482,-1.2482,-1.2481,0,-1.2884,-1.2872,-1.2824,-1.2812,-1.2798,-1.2761,-1.2748,-1.2724,-1.2696,-1.2679,-1.2647,-1.2632,-1.259,-1.257,-1.2544,-1.2526,-1.2519,-1.2504,-1.2498,-1.2507,-1.2509,-1.2496,-1.2494,-1.2482,-1.2482,-1.2482,-1.2482,0,-1.2918,-1.2885,-1.2863,-1.282,-1.2809,-1.28,-1.2764,-1.2751,-1.2726,-1.2706,-1.2699,-1.2659,-1.2634,-1.2599,-1.2564,-1.2546,-1.2532,-1.2521,-1.2543,-1.2539,-1.2545,-1.2545,-1.2568,-1.2569,-1.2531,-1.2531,-1.2532,0,-1.293,-1.292,-1.2876,-1.2864,-1.2844,-1.2824,-1.2808,-1.2772,-1.2756,-1.272,-1.2712,-1.2685,-1.2662,-1.2625,-1.2592,-1.2565,-1.2553,-1.2563,-1.2549,-1.2559,-1.2553,-1.2554,-1.2553,-1.2566,-1.2567,-1.2567,-1.2568,0,-1.2954,-1.2939,-1.2916,-1.2889,-1.2871,-1.2847,-1.2822,-1.2814,-1.2773,-1.2757,-1.2732,-1.2714,-1.2679,-1.2653,-1.2622,-1.2601,-1.2578,-1.2573,-1.2572,-1.2581,-1.2594,-1.2587,-1.2552,-1.2572,-1.2572,-1.2571,-1.2571,-1.2571,-1.2976,-1.2966,-1.2935,-1.2911,-1.289,-1.2868,-1.2854,-1.2828,-1.2807,-1.2776,-1.2757,-1.2733,-1.2702,-1.2659,-1.2639,-1.262,-1.2611,-1.261,-1.2609,-1.261,-1.2613,-1.2599,-1.2615,-1.2615,-1.2614,-1.2614,-1.2614,0,-1.2998,-1.2977,-1.2956,-1.2923,-1.2905,-1.2887,-1.2859,-1.2845,-1.2825,-1.2798,-1.2777,-1.2749,-1.2725,-1.2691,-1.2664,-1.2656,-1.2645,-1.265,-1.265,-1.2645,-1.2623,-1.2626,-1.2659,-1.2659,-1.2659,-1.2659,-1.2659,-1.2659,-1.3008,-1.299,-1.2972,-1.2943,-1.2922,-1.2899,-1.2885,-1.2865,-1.2844,-1.2815,-1.2794,-1.2773,-1.2745,-1.2716,-1.2693,-1.2683,-1.2675,-1.2684,-1.2671,-1.2651,-1.2647,-1.2643,-1.2645,-1.2682,-1.2682,-1.2695,-1.2695,-1.2695]},{"header":{"parameterUnit":"m.s-1","parameterCategory":1,"la1":30.2991,"la2":30.254,"lo1":-89.0895,"lo2":-89.0444,"dy":0.0017,"dx":0.0017,"nx":28,"ny":28,"refTime":"2025-07-25T21:00:00:Z","depth":0,"parameterNumber":3,"parameterNumberName":"V-component_of_WINDS"},"data":[0,0,0,0,0,0,0,0,0,0,0,0,0,0,0,0,0,0,0,0,0,0,0,0,0,0,0,0,0,0,0,0,0,0,0,0,0,0,0,0,0,0,0,0,0,0,0,0,0,0,0,0,0,0,0,0,0,0,2.3401,2.3401,0,2.3399,2.3399,2.3399,2.3435,2.3436,2.3437,2.3437,2.3432,2.3431,2.343,0,0,0,0,0,0,0,0,0,0,0,0,0,2.343,2.343,2.3401,2.3401,2.3401,2.3399,2.3399,2.3399,2.3434,2.3436,2.3437,2.3438,2.3432,2.3431,2.343,0,0,0,0,0,0,0,0,0,0,0,0,0,2.3422,2.3429,2.3401,2.3418,2.342,2.3399,2.3399,2.3399,2.3434,2.3436,2.3437,2.3438,2.3433,2.3431,2.343,2.3391,0,0,2.3425,2.3424,0,0,0,0,0,0,0,0,2.3422,2.3421,2.3416,2.3417,2.3419,2.3419,2.3408,2.3396,2.3434,2.3429,2.3437,2.3439,2.3426,2.3425,2.3422,2.3391,2.3391,2.3425,2.3424,2.3423,2.3423,0,0,0,0,0,0,0,2.3423,2.3421,2.34,2.3415,2.3417,2.3425,2.3425,2.3406,2.3419,2.3429,2.3432,2.3431,2.3427,2.3423,2.3422,2.3391,2.3425,2.3424,2.3423,2.3422,2.3327,2.3325,0,0,0,0,0,0,2.3422,2.3421,2.34,2.34,2.3424,2.3423,2.3424,2.3417,2.342,2.3421,2.343,2.3433,2.3425,2.3424,2.3422,2.3375,2.3423,2.3422,2.3421,2.3328,2.3326,2.3324,0,0,0,0,0,0,2.3422,2.3419,2.34,2.3411,2.3409,2.3421,2.3414,2.3416,2.3412,2.342,2.3422,2.3424,2.3426,2.3424,2.3398,2.3376,2.3421,2.342,2.333,2.3328,2.3325,2.3283,0,0,0,0,0,0,2.3423,2.3419,2.3406,2.3411,2.3409,2.3378,2.3412,2.3415,2.341,2.3414,2.3415,2.3416,2.3427,2.3401,2.3397,2.3374,2.3419,2.3332,2.3329,2.3326,2.3286,2.3279,2.3273,0,0,0,0,0,2.3424,2.3393,2.3405,2.3402,2.3392,2.3377,2.3375,2.3389,2.3408,2.3394,2.3399,2.3416,2.3379,2.3398,2.3394,2.337,2.3334,2.333,2.3326,2.3289,2.3281,2.3274,0,0,0,0,0,0,2.3384,2.3394,2.3407,2.3378,2.3376,2.3383,2.3365,2.338,2.3372,2.3376,2.3393,2.3393,2.3364,2.3365,2.3385,2.3333,2.3359,2.3355,2.3333,2.3325,2.3318,2.3318,2.3417,0,0,0,0,0,2.3372,2.336,2.3369,2.3342,2.3341,2.3353,2.3347,2.3358,2.3356,2.3355,2.3359,2.3355,2.3343,2.3334,2.3323,2.3287,2.3287,2.3269,2.3263,2.3258,2.3253,2.3232,2.3224,2.3313,2.3313,2.3313,0,0,2.3347,2.3351,2.3342,2.3334,2.3334,2.332,2.3352,2.3335,2.3324,2.3352,2.3328,2.3331,2.3328,2.3297,2.3283,2.3297,2.3228,2.3253,2.3249,2.3247,2.3227,2.3219,2.3211,2.331,2.3311,2.3311,0,0,2.3293,2.3296,2.3273,2.3273,2.3273,2.3281,2.3275,2.3279,2.3282,2.3259,2.3279,2.3266,2.3244,2.3241,2.3237,2.3181,2.3196,2.3177,2.3142,2.3122,2.3115,2.3109,2.3087,2.3079,2.3173,2.3173,2.3173,0,2.3261,2.3241,2.3259,2.3241,2.3236,2.3263,2.3238,2.3237,2.3233,2.3228,2.3244,2.3217,2.3217,2.3185,2.3171,2.3167,2.316,2.3176,2.3115,2.3109,2.3103,2.3083,2.3075,2.317,2.3171,2.3171,2.3171,0,2.3201,2.3187,2.3168,2.3164,2.3158,2.3137,2.315,2.3141,2.3153,2.3159,2.3134,2.3135,2.3124,2.3118,2.3129,2.3086,2.3094,2.3112,2.3139,2.3092,2.3073,2.3065,2.3167,2.3168,2.3168,2.3169,0,0,2.3121,2.3128,2.312,2.3118,2.312,2.3109,2.3088,2.3079,2.307,2.3066,2.3048,2.3029,2.3046,2.3041,2.3052,2.3034,2.2988,2.3054,2.3054,2.304,2.2938,2.2923,2.2914,2.2999,2.2997,2.2996,2.2938,0,2.3067,2.3034,2.3049,2.3013,2.2999,2.3024,2.3006,2.3004,2.3009,2.2997,2.3003,2.2988,2.3012,2.3009,2.2993,2.2997,2.2967,2.3002,2.298,2.2979,2.2978,2.2905,2.2889,2.2834,2.2931,2.293,2.2929,0,2.3,2.2994,2.2957,2.296,2.2955,2.2939,2.293,2.2919,2.2917,2.2922,2.2916,2.2931,2.291,2.2938,2.2908,2.2931,2.2923,2.2923,2.2922,2.2918,2.2949,2.2897,2.2817,2.2808,2.2917,2.2918,2.2919,0,2.2942,2.2925,2.2901,2.2898,2.2903,2.289,2.2891,2.2891,2.2884,2.2876,2.2872,2.2862,2.2855,2.2846,2.2857,2.2877,2.2824,2.2854,2.2826,2.2825,2.2812,2.2812,2.2727,2.281,2.2811,2.2811,2.2811,0,2.2879,2.2855,2.2875,2.2859,2.2832,2.285,2.2823,2.2826,2.2825,2.281,2.2831,2.2816,2.2832,2.2818,2.2826,2.2798,2.2796,2.2798,2.28,2.2795,2.2794,2.2788,2.2792,2.2808,2.2809,2.2809,2.281,0,2.281,2.2823,2.2797,2.2803,2.2804,2.2784,2.2788,2.2773,2.2781,2.276,2.2757,2.2767,2.2751,2.2762,2.2746,2.2751,2.2714,2.2723,2.2715,2.2717,2.2687,2.2689,2.2593,2.258,2.2674,2.2673,2.2672,0,2.2768,2.275,2.2755,2.2746,2.2746,2.2732,2.2725,2.2742,2.2733,2.273,2.2715,2.2701,2.2691,2.2664,2.2669,2.2656,2.2663,2.2631,2.2661,2.2656,2.266,2.266,2.2658,2.2624,2.2623,2.2622,2.2621,0,2.2691,2.2699,2.2689,2.268,2.2672,2.2665,2.2661,2.2653,2.2669,2.2658,2.2643,2.2635,2.2619,2.2604,2.2594,2.2593,2.2609,2.2612,2.2604,2.2597,2.2593,2.2593,2.2696,2.2613,2.2614,2.2615,2.2615,2.2615,2.2633,2.2618,2.2618,2.2606,2.2605,2.26,2.2586,2.2591,2.2579,2.2568,2.2579,2.2559,2.2557,2.2544,2.2542,2.2526,2.2539,2.2528,2.2525,2.2522,2.2517,2.2597,2.2524,2.2524,2.2525,2.2525,2.2525,0,2.2556,2.2558,2.2546,2.254,2.2529,2.2548,2.2543,2.2533,2.2516,2.2513,2.2503,2.2484,2.247,2.2474,2.2461,2.2447,2.2454,2.2443,2.2443,2.2442,2.2507,2.2514,2.2438,2.2438,2.2438,2.2438,2.2438,2.2438,2.2514,2.2489,2.2496,2.2469,2.2471,2.2453,2.2449,2.2444,2.2442,2.2421,2.2409,2.2413,2.2412,2.2399,2.2386,2.2387,2.238,2.2366,2.237,2.243,2.2438,2.2446,2.2453,2.2365,2.2365,2.2306,2.2306,2.2305]}]]